Location: Newark
(47.5833°N, 8.1500°E)
Time: 18:27:15
(UTC+00:00)

Transit 2A - Pass Details

Date: 01 November 2020
Orbit: 595 x 964 km, 66.7° (Epoch: 01 December)

Event Time Altitude Azimuth Distance (km) Brightness Sun altitude
Rises 02:47:31 0° 283° (WNW) 3,641 - -34.6°
Reaches altitude 10° 02:51:23 10° 306° (NW) 2,667 - -34.0°
Maximum altitude 02:54:54 15° 340° (NNW) 2,268 - -33.4°
Exits shadow 02:56:04 15° 353° (N) 2,297 8.5 -33.2°
Drops below altitude 10° 02:58:18 10° 15° (NNE) 2,573 9.0 -32.9°
Sets 03:01:56 0° 38° (NE) 3,442 10.1 -32.3°
